Overview Statistics Trail Chart Weather Telemetry Raw packets
 

This is the latest recevied weather packets stored in our database for station/object IU2RPR-3. If no packets are shown the sender has not sent any weather packets the latest 10 day(s).

<< 20 21 22 23 24 25 26 >>
Time Temp. Humidity Pressure Rain* Wind** Luminosity Snow
1787912044 28.33° C 65% 1014.5 hPa - - - -
1787910844 27.22° C 69% 1014.7 hPa - - - -
1787909635 25.56° C 76% 1014.6 hPa - - - -
1787908430 25° C 79% 1015.2 hPa - - - -
1787907225 25° C 81% 1015.3 hPa - - - -
1787906024 23.89° C 84% 1015.5 hPa - - - -
1787904821 23.33° C 86% 1015.6 hPa - - - -
1787903619 22.78° C 90% 1015.5 hPa - - - -
1787902418 21.67° C 92% 1015.9 hPa - - - -
1787901217 22.22° C 90% 1016.1 hPa - - - -
1787900010 21.67° C 96% 1016.4 hPa - - - -
1787898808 21.67° C 95% 1016.8 hPa - - - -
1787897605 21.11° C 93% 1016.9 hPa - - - -
1787896404 21.11° C 99% 1016.5 hPa - - - -
1787895202 21.11° C 98% 1016.3 hPa - - - -
1787893999 20.56° C 99% 1016.3 hPa - - - -
1787892798 20.56° C 99% 1016.1 hPa - - - -
1787891597 20° C 99% 1016.1 hPa - - - -
1787890393 20.56° C 99% 1016.5 hPa - - - -
1787889192 21.11° C 98% 1016.6 hPa - - - -
1787887990 22.78° C 78% 1015.1 hPa - - - -
1787886788 22.78° C 76% 1014.9 hPa - - - -
1787885585 22.78° C 74% 1015.5 hPa - - - -
1787884383 22.78° C 74% 1016.2 hPa - - - -
1787883181 22.78° C 75% 1016.2 hPa - - - -

* Rain since midnight (hover to see other rain measurements)
** Current wind speed in m/s (hover to see current wind gust speed)